CW4517 Weather Reports


Display with metric or nautical units.
time (UTC)temp
F
wind
direction
speed
MPH
gust
MPH
rain 1hr
in
rain 24hr
in
rain mn
in
humidity
%
barometer
mb
20260508080915 49 229 3.0 6.0 0.00 0.00 0.00 80 1007.6
20260508080413 50 215 3.0 6.0 0.00 0.00 0.00 80 1007.7
20260508075912 50 250 3.0 6.0 0.00 0.00 0.00 80 1007.7
20260508075634 49 228 3.0 8.0 0.00 0.00 0.00 81 1007.7
20260508074911 49 240 3.0 8.0 0.00 0.00 0.00 81 1007.8
20260508074412 49 234 3.0 5.0 0.00 0.00 0.00 82 1007.8
20260508073912 48 207 3.0 5.0 0.00 0.00 0.00 82 1007.8
20260508073412 48 233 3.0 6.0 0.00 0.00 0.00 82 1008.0
20260508072915 48 220 3.0 6.0 0.00 0.00 0.00 82 1008.0
20260508072416 48 217 3.0 5.0 0.00 0.00 0.00 82 1008.0
20260508071909 48 211 3.0 5.0 0.00 0.00 0.00 83 1008.1
20260508071356 48 231 3.0 5.0 0.00 0.00 0.00 83 1008.1
20260508070847 48 216 3.0 4.0 0.00 0.00 0.00 83 1008.1
20260508070340 48 227 3.0 4.0 0.00 0.00 0.00 83 1008.1
20260508070050 47 227 2.0 4.0 0.00 0.00 0.00 83 1008.1
20260508065319 47 223 1.0 4.0 0.00 0.00 0.00 83 1008.1
20260508064821 47 238 1.0 5.0 0.00 0.00 0.00 82 1008.1
20260508064315 48 237 1.0 5.0 0.00 0.00 0.00 82 1008.1
20260508063810 48 245 2.0 4.0 0.00 0.00 0.00 82 1008.1
20260508063302 48 245 2.0 4.0 0.00 0.00 0.00 82 1008.2
20260508062756 48 240 2.0 5.0 0.00 0.00 0.00 82 1008.2
20260508062513 48 238 2.0 5.0 0.00 0.00 0.00 82 1008.2
20260508061741 48 213 2.0 6.0 0.00 0.00 0.00 82 1008.1
20260508061238 48 227 3.0 6.0 0.00 0.00 0.00 82 1008.1
20260508060732 47 233 3.0 6.0 0.00 0.00 0.00 82 1008.1
20260508060445 47 227 2.0 4.0 0.00 0.00 0.00 82 1008.2
20260508055721 47 220 3.0 6.0 0.00 0.00 0.00 81 1008.2
20260508055654 47 198 3.0 6.0 0.00 0.00 0.00 82 1008.2
20260508054708 47 230 3.0 4.0 0.00 0.00 0.00 81 1008.1
20260508054202 48 215 3.0 4.0 0.00 0.00 0.00 81 1008.1
20260508053656 48 216 3.0 5.0 0.00 0.00 0.00 81 1008.1
20260508053151 48 232 3.0 6.0 0.00 0.00 0.00 81 1008.1
20260508052645 48 255 2.0 6.0 0.00 0.00 0.00 81 1008.1
20260508052140 48 240 2.0 5.0 0.00 0.00 0.00 81 1008.1
20260508051629 48 223 1.0 3.0 0.00 0.00 0.00 81 1008.1
20260508051348 48 236 1.0 3.0 0.00 0.00 0.00 81 1008.1
20260508050619 48 238 2.0 4.0 0.00 0.00 0.00 81 1008.1
20260508050116 48 234 2.0 4.0 0.00 0.00 0.00 80 1007.8
20260508045611 48 289 2.0 4.0 0.00 0.00 0.00 80 1007.8
20260508045330 49 245 3.0 8.0 0.00 0.00 0.00 80 1007.8
20260508044559 49 223 4.0 8.0 0.00 0.00 0.00 80 1007.7
20260508044049 49 222 4.0 7.0 0.00 0.00 0.00 79 1007.7
20260508043547 49 223 4.0 7.0 0.00 0.00 0.00 79 1007.7
20260508043041 49 222 4.0 7.0 0.00 0.00 0.00 79 1007.6
20260508042800 49 221 4.0 7.0 0.00 0.00 0.00 78 1007.6
20260508042030 49 245 4.0 8.0 0.00 0.00 0.00 78 1007.6
20260508041523 50 229 4.0 8.0 0.00 0.00 0.00 78 1007.6
20260508041244 50 228 4.0 7.0 0.00 0.00 0.00 77 1007.6
20260508040729 50 217 3.0 7.0 0.00 0.00 0.00 77 1007.6
20260508040227 50 215 3.0 7.0 0.00 0.00 0.00 77 1007.6
20260508035457 50 212 3.0 7.0 0.00 0.00 0.00 77 1007.6
20260508034947 50 223 3.0 7.0 0.00 0.00 0.00 76 1007.6
20260508034446 50 224 3.0 8.0 0.00 0.00 0.00 76 1007.6
20260508034158 50 213 3.0 8.0 0.00 0.00 0.00 76 1007.6
20260508033434 50 215 4.0 6.0 0.00 0.00 0.00 76 1007.6
20260508032928 50 216 4.0 7.0 0.00 0.00 0.00 76 1007.6
20260508032421 51 225 4.0 8.0 0.00 0.00 0.00 75 1007.6
20260508031915 51 210 4.0 8.0 0.00 0.00 0.00 75 1007.4
20260508031405 51 227 4.0 8.0 0.00 0.00 0.00 74 1007.4
20260508030905 51 225 4.0 9.0 0.00 0.00 0.00 74 1007.4
20260508030404 51 232 3.0 9.0 0.00 0.00 0.00 73 1007.4
20260508025904 51 239 2.0 5.0 0.00 0.00 0.00 72 1007.4
20260508025404 52 210 2.0 3.0 0.00 0.00 0.00 71 1007.4
20260508024905 52 198 2.0 4.0 0.00 0.00 0.00 70 1007.4
20260508024405 52 207 2.0 4.0 0.00 0.00 0.00 70 1007.4
20260508024130 52 205 2.0 4.0 0.00 0.00 0.00 70 1007.4
20260508023405 52 192 2.0 4.0 0.00 0.00 0.00 70 1007.2
20260508022905 51 196 2.0 4.0 0.00 0.00 0.00 71 1007.2
20260508022407 51 226 1.0 4.0 0.00 0.00 0.00 71 1007.2
20260508021907 51 223 0.0 4.0 0.00 0.00 0.00 72 1007.2
20260508021401 51 177 0.0 0.0 0.00 0.00 0.00 72 1007.2
20260508020851 51 186 0.0 0.0 0.00 0.00 0.00 72 1007.2
20260508020334 51 186 0.0 0.0 0.00 0.00 0.00 73 1007.1
20260508015823 51 169 0.0 0.0 0.00 0.00 0.00 73 1007.1
20260508015312 51 180 0.0 0.0 0.00 0.00 0.00 73 1007.1
20260508014758 51 153 0.0 0.0 0.00 0.00 0.00 73 1006.8
20260508014514 51 85 0.0 0.0 0.00 0.00 0.00 73 1006.8
20260508013742 51 85 0.0 0.0 0.00 0.00 0.00 73 1006.8
20260508013717 51 85 0.0 0.0 0.00 0.00 0.00 73 1006.6
20260508012736 51 85 0.0 0.0 0.00 0.00 0.00 73 1006.6
20260508012228 52 85 0.0 0.0 0.00 0.00 0.00 73 1006.6
20260508011723 52 27 0.0 0.0 0.00 0.00 0.00 73 1006.6
20260508011213 52 27 0.0 0.0 0.00 0.00 0.00 73 1006.6
20260508010712 53 24 0.0 0.0 0.00 0.00 0.00 72 1006.6
20260508010201 53 13 0.0 0.0 0.00 0.00 0.00 72 1006.6
20260508005659 53 13 0.0 0.0 0.00 0.00 0.00 71 1006.6
20260508005647 54 13 0.0 0.0 0.00 0.00 0.00 71 1006.6
20260508004912 54 13 0.0 0.0 0.00 0.00 0.00 70 1006.5
20260508004142 55 13 0.0 0.0 0.00 0.00 0.00 69 1006.5
20260508003857 55 13 0.0 0.0 0.00 0.00 0.00 69 1006.5
20260508003355 56 13 0.0 0.0 0.00 0.00 0.00 68 1006.5
20260508002623 56 13 0.0 0.0 0.00 0.00 0.00 68 1006.5
20260508002341 56 13 0.0 0.0 0.00 0.00 0.00 67 1006.5
20260508001610 56 13 0.0 0.0 0.00 0.00 0.00 67 1006.5
20260508001101 55 13 0.0 0.0 0.00 0.00 0.00 68 1006.5
20260508000558 55 13 0.0 1.0 0.00 0.00 0.00 68 1006.5
20260508000053 55 13 0.0 2.0 0.00 0.00 0.00 68 1006.5
20260507235546 55 13 1.0 4.0 0.00 0.00 0.00 68 1006.5
20260507235041 55 5 1.0 4.0 0.00 0.00 0.00 68 1006.5
20260507234534 55 342 2.0 5.0 0.00 0.00 0.00 67 1006.5
20260507234251 55 282 2.0 5.0 0.00 0.00 0.00 67 1006.5
20260507233522 55 5 2.0 6.0 0.00 0.00 0.00 66 1006.5
20260507233016 55 54 3.0 7.0 0.00 0.00 0.00 65 1006.5
20260507232510 56 34 4.0 8.0 0.00 0.00 0.00 63 1006.5
20260507232004 56 36 4.0 8.0 0.00 0.00 0.00 62 1006.5
20260507231458 58 0 4.0 10.0 0.00 0.00 0.00 58 1006.3
20260507230948 60 34 6.0 18.0 0.00 0.00 0.00 56 1006.3
20260507230713 60 221 7.0 18.0 0.00 0.00 0.00 55 1006.3
20260507225939 60 246 6.0 17.0 0.00 0.00 0.00 58 1006.3
20260507225428 60 186 7.0 17.0 0.00 0.00 0.00 58 1006.3
20260507224927 59 234 7.0 18.0 0.00 0.00 0.00 58 1006.6
20260507224421 59 232 8.0 18.0 0.00 0.00 0.00 57 1006.6
20260507223919 59 225 8.0 15.0 0.00 0.00 0.00 57 1006.6
20260507223640 59 229 7.0 15.0 0.00 0.00 0.00 56 1006.7
20260507222920 60 197 7.0 14.0 0.00 0.00 0.00 57 1006.7
20260507222420 59 255 8.0 14.0 0.00 0.00 0.00 58 1006.7
20260507221920 59 225 8.0 14.0 0.00 0.00 0.00 57 1006.8
20260507221419 59 211 7.0 14.0 0.00 0.00 0.00 59 1006.8
20260507220919 58 221 7.0 14.0 0.00 0.00 0.00 59 1006.8
20260507220419 58 213 7.0 14.0 0.00 0.00 0.00 60 1007.1
20260507215920 58 220 8.0 16.0 0.00 0.00 0.00 60 1007.1
20260507215419 57 231 9.0 16.0 0.00 0.00 0.00 61 1007.1
20260507214914 57 219 9.0 16.0 0.00 0.00 0.00 61 1007.1
20260507214402 57 227 9.0 20.0 0.00 0.00 0.00 61 1007.1
20260507213849 57 220 9.0 20.0 0.00 0.00 0.00 60 1007.1
20260507213337 57 215 10.0 23.0 0.00 0.00 0.00 60 1007.2
20260507212831 57 275 10.0 23.0 0.00 0.00 0.00 62 1007.2
20260507212546 56 220 10.0 21.0 0.00 0.00 0.00 61 1007.2
20260507211819 56 227 11.0 21.0 0.00 0.00 0.00 62 1007.1
20260507211538 56 248 11.0 21.0 0.00 0.00 0.00 61 1007.1
20260507210807 57 248 10.0 21.0 0.00 0.00 0.00 61 1007.1
20260507210301 57 204 10.0 19.0 0.00 0.00 0.00 61 1007.2
20260507205755 57 235 9.0 21.0 0.00 0.00 0.00 61 1007.2
20260507205245 57 214 10.0 21.0 0.00 0.00 0.00 62 1007.2
20260507204743 56 234 9.0 18.0 0.00 0.00 0.00 62 1007.6
20260507204459 57 231 8.0 16.0 0.00 0.00 0.00 61 1007.6
20260507203817 56 177 8.0 16.0 0.00 0.00 0.00 62 1007.6
20260507202715 55 239 9.0 19.0 0.00 0.00 0.00 64 1008.1
20260507202213 54 213 8.0 19.0 0.00 0.00 0.00 65 1008.1
20260507201708 54 240 8.0 19.0 0.00 0.00 0.00 65 1008.2
20260507201201 54 238 9.0 21.0 0.00 0.00 0.00 66 1008.2
20260507200656 54 237 10.0 21.0 0.00 0.00 0.00 65 1008.2
20260507200145 54 241 9.0 20.0 0.00 0.00 0.00 65 1008.7
20260507195914 53 217 8.0 16.0 0.00 0.00 0.00 66 1008.7
20260507195137 53 268 6.0 16.0 0.00 0.00 0.00 67 1008.7
20260507194632 52 221 7.0 16.0 0.00 0.00 0.00 70 1009.1
20260507194125 51 286 9.0 20.0 0.00 0.00 0.00 71 1009.1
20260507193620 51 205 10.0 20.0 0.00 0.00 0.00 71 1009.1
20260507193113 52 245 10.0 22.0 0.00 0.00 0.00 68 1009.2
20260507192832 52 233 10.0 22.0 0.00 0.00 0.00 65 1009.2
20260507192557 53 171 11.0 24.0 0.00 0.00 0.00 63 1009.2
20260507191555 53 259 10.0 24.0 0.00 0.00 0.00 62 1009.3
20260507191049 53 242 10.0 21.0 0.00 0.00 0.00 62 1009.3
20260507190543 53 217 11.0 25.0 0.00 0.00 0.00 61 1009.3
20260507190033 54 246 11.0 25.0 0.00 0.00 0.00 60 1009.2
20260507185757 54 267 13.0 22.0 0.00 0.00 0.00 61 1009.2
20260507185242 54 229 13.0 27.0 0.00 0.00 0.00 60 1009.2
20260507185006 54 205 12.0 27.0 0.00 0.00 0.00 57 1009.0
20260507184014 56 215 11.0 26.0 0.00 0.00 0.00 56 1009.0
20260507183515 57 203 10.0 22.0 0.00 0.00 0.00 54 1009.0
20260507183014 56 240 9.0 22.0 0.00 0.00 0.00 51 1009.0
20260507182515 56 259 9.0 22.0 0.00 0.00 0.00 49 1009.0
20260507182015 56 192 9.0 22.0 0.00 0.00 0.00 47 1009.0
20260507181743 56 218 8.0 23.0 0.00 0.00 0.00 49 1009.3
20260507181014 56 243 8.0 23.0 0.00 0.00 0.00 48 1009.3
20260507180515 56 238 8.0 16.0 0.00 0.00 0.00 48 1009.3
20260507180015 56 235 9.0 30.0 0.00 0.00 0.00 48 1009.5
20260507175742 56 246 7.0 30.0 0.00 0.00 0.00 48 1009.5
20260507175018 56 235 6.0 20.0 0.00 0.00 0.00 47 1009.5
20260507174513 56 229 7.0 17.0 0.00 0.00 0.00 46 1009.5
20260507173959 56 152 7.0 17.0 0.00 0.00 0.00 46 1009.5
20260507173447 56 228 6.0 17.0 0.00 0.00 0.00 45 1009.7
20260507172935 57 247 6.0 16.0 0.00 0.00 0.00 45 1009.7
20260507172423 57 263 6.0 16.0 0.00 0.00 0.00 44 1009.7
20260507171917 57 240 5.0 9.0 0.00 0.00 0.00 46 1010.1
20260507171411 56 290 5.0 12.0 0.00 0.00 0.00 45 1010.1
20260507170905 56 287 6.0 14.0 0.00 0.00 0.00 44 1010.1
20260507170626 57 253 6.0 14.0 0.00 0.00 0.00 46 1010.2
20260507170117 56 240 6.0 12.0 0.00 0.00 0.00 46 1010.2
20260507165610 56 207 6.0 13.0 0.00 0.00 0.00 46 1010.2
20260507164841 56 250 5.0 13.0 0.00 0.00 0.00 47 1010.3
20260507164335 56 240 5.0 10.0 0.00 0.00 0.00 45 1010.3
20260507163829 55 227 5.0 12.0 0.00 0.00 0.00 46 1010.3
20260507163323 55 298 6.0 12.0 0.00 0.00 0.00 47 1010.8
20260507162812 55 234 7.0 12.0 0.00 0.00 0.00 46 1010.8
20260507162311 55 239 6.0 12.0 0.00 0.00 0.00 48 1010.8
20260507161804 55 241 5.0 12.0 0.00 0.00 0.00 49 1011.0
20260507161259 55 308 5.0 10.0 0.00 0.00 0.00 49 1011.0
20260507160753 55 222 5.0 15.0 0.00 0.00 0.00 48 1011.0
20260507160243 54 212 4.0 13.0 0.00 0.00 0.00 50 1011.1
20260507155741 54 190 4.0 12.0 0.00 0.00 0.00 51 1011.1
20260507155235 54 224 6.0 13.0 0.00 0.00 0.00 51 1011.1
20260507154729 54 184 6.0 13.0 0.00 0.00 0.00 49 1011.3
20260507154316 53 196 5.0 13.0 0.00 0.00 0.00 49 1011.3
20260507153211 53 234 4.0 11.0 0.00 0.00 0.00 49 1011.4
20260507152700 53 244 5.0 11.0 0.00 0.00 0.00 50 1011.4
20260507152158 52 225 5.0 11.0 0.00 0.00 0.00 50 1011.4
20260507151653 52 247 5.0 9.0 0.00 0.00 0.00 50 1011.6
20260507151147 52 180 5.0 10.0 0.00 0.00 0.00 51 1011.6
20260507150640 51 240 5.0 10.0 0.00 0.00 0.00 51 1011.6
20260507150130 51 261 5.0 10.0 0.00 0.00 0.00 50 1011.7
20260507145628 51 241 5.0 10.0 0.00 0.00 0.00 53 1011.7
20260507145342 51 185 5.0 10.0 0.00 0.00 0.00 52 1011.7
20260507144616 50 263 5.0 10.0 0.00 0.00 0.00 54 1011.9
20260507144111 50 212 4.0 9.0 0.00 0.00 0.00 52 1011.9
20260507143605 50 208 4.0 8.0 0.00 0.00 0.00 56 1011.9
20260507143059 49 200 4.0 8.0 0.00 0.00 0.00 55 1011.8
20260507142549 49 236 3.0 7.0 0.00 0.00 0.00 55 1011.8
20260507142049 49 213 3.0 7.0 0.00 0.00 0.00 57 1011.8
20260507141537 49 204 3.0 7.0 0.00 0.00 0.00 56 1012.0
20260507141030 49 192 3.0 7.0 0.00 0.00 0.00 56 1012.0
20260507140524 48 236 4.0 7.0 0.00 0.00 0.00 57 1012.0
20260507140239 48 196 4.0 8.0 0.00 0.00 0.00 59 1012.2
20260507135508 48 228 3.0 8.0 0.00 0.00 0.00 59 1012.2
20260507134959 47 184 3.0 7.0 0.00 0.00 0.00 59 1012.2
20260507134459 47 244 4.0 9.0 0.00 0.00 0.00 58 1012.3
20260507134000 47 230 4.0 9.0 0.00 0.00 0.00 60 1012.3
20260507133459 47 223 3.0 7.0 0.00 0.00 0.00 60 1012.3
20260507132959 46 269 4.0 7.0 0.00 0.00 0.00 61 1012.3
20260507132500 46 251 4.0 8.0 0.00 0.00 0.00 61 1012.3
20260507132000 45 254 4.0 8.0 0.00 0.00 0.00 61 1012.3
20260507131500 45 206 3.0 7.0 0.00 0.00 0.00 63 1012.2
20260507131044 44 248 3.0 6.0 0.00 0.00 0.00 65 1012.2
20260507125942 43 209 2.0 6.0 0.00 0.00 0.00 65 1011.9
20260507125429 43 219 2.0 4.0 0.00 0.00 0.00 67 1011.9
20260507124923 42 236 2.0 4.0 0.00 0.00 0.00 67 1011.9
20260507124418 42 237 2.0 4.0 0.00 0.00 0.00 69 1011.9
20260507123906 41 225 2.0 4.0 0.00 0.00 0.00 70 1011.9
20260507123406 41 223 2.0 4.0 0.00 0.00 0.00 70 1011.9
20260507122901 41 217 2.0 4.0 0.00 0.00 0.00 71 1011.9
20260507122354 40 221 1.0 4.0 0.00 0.00 0.00 70 1011.9
20260507121848 40 125 0.0 2.0 0.00 0.00 0.00 72 1011.9
20260507121342 39 125 1.0 2.0 0.00 0.00 0.00 72 1011.9
20260507120835 39 125 1.0 2.0 0.00 0.00 0.00 72 1011.9
20260507120325 39 125 1.0 2.0 0.00 0.00 0.00 73 1011.9
20260507115814 38 125 0.0 2.0 0.00 0.00 0.00 73 1011.9
20260507115313 38 122 0.0 2.0 0.00 0.00 0.00 74 1011.9
20260507114808 38 122 0.0 0.0 0.00 0.00 0.00 74 1011.8
20260507114524 38 122 0.0 0.0 0.00 0.00 0.00 74 1011.8
20260507113756 37 235 0.0 0.0 0.00 0.00 0.00 75 1011.8
20260507113245 37 235 0.0 2.0 0.00 0.00 0.00 76 1011.7
20260507112744 37 235 0.0 2.0 0.00 0.00 0.00 76 1011.7
20260507112458 37 235 1.0 2.0 0.00 0.00 0.00 76 1011.7
20260507111732 36 235 1.0 2.0 0.00 0.00 0.00 77 1011.7
20260507111225 36 235 1.0 3.0 0.00 0.00 0.00 77 1011.7
20260507110714 36 235 2.0 3.0 0.00 0.00 0.00 77 1011.7
20260507110213 36 235 2.0 3.0 0.00 0.00 0.00 77 1011.6
20260507105708 36 235 1.0 3.0 0.00 0.00 0.00 77 1011.6
20260507105209 36 235 1.0 2.0 0.00 0.00 0.00 77 1011.6
20260507104709 36 235 1.0 3.0 0.00 0.00 0.00 77 1011.8
20260507104211 36 235 2.0 3.0 0.00 0.00 0.00 77 1011.8
20260507103926 36 235 2.0 3.0 0.00 0.00 0.00 77 1011.8
20260507103207 36 235 2.0 3.0 0.00 0.00 0.00 77 1011.8
20260507102706 36 235 2.0 3.0 0.00 0.00 0.00 77 1011.8
20260507102207 36 235 2.0 3.0 0.00 0.00 0.00 77 1011.8
20260507101706 36 235 2.0 3.0 0.00 0.00 0.00 77 1011.8
20260507101207 36 238 1.0 3.0 0.00 0.00 0.00 77 1011.8
20260507100707 36 238 1.0 2.0 0.00 0.00 0.00 77 1011.8
20260507100207 37 238 1.0 2.0 0.00 0.00 0.00 76 1011.8
20260507095707 37 238 1.0 2.0 0.00 0.00 0.00 76 1011.8
20260507095428 37 238 1.0 2.0 0.00 0.00 0.00 75 1011.8
20260507094705 37 238 0.0 2.0 0.00 0.00 0.00 75 1011.9
20260507094205 37 238 0.0 2.0 0.00 0.00 0.00 75 1011.9
20260507094142 37 238 1.0 2.0 0.00 0.00 0.00 75 1011.9
20260507093158 37 238 1.0 2.0 0.00 0.00 0.00 74 1011.9
20260507092655 38 238 1.0 4.0 0.00 0.00 0.00 74 1011.9
20260507092154 38 238 1.0 4.0 0.00 0.00 0.00 74 1011.9
20260507091657 38 279 1.0 3.0 0.00 0.00 0.00 74 1011.9
20260507091415 38 279 1.0 2.0 0.00 0.00 0.00 74 1011.9
20260507090654 38 279 1.0 2.0 0.00 0.00 0.00 74 1011.9
20260507090155 38 279 0.0 1.0 0.00 0.00 0.00 74 1011.9
20260507085915 38 279 0.0 1.0 0.00 0.00 0.00 74 1011.9
20260507085153 38 279 0.0 0.0 0.00 0.00 0.00 73 1011.9
20260507084653 38 279 0.0 1.0 0.00 0.00 0.00 73 1011.9
20260507084150 38 279 0.0 2.0 0.00 0.00 0.00 73 1011.9
20260507083859 38 279 1.0 3.0 0.00 0.00 0.00 73 1011.9
20260507083140 38 279 1.0 3.0 0.00 0.00 0.00 73 1011.9
20260507082634 38 279 1.0 2.0 0.00 0.00 0.00 73 1011.9
20260507082123 38 279 0.0 2.0 0.00 0.00 0.00 73 1011.9
20260507081620 38 279 0.0 2.0 0.00 0.00 0.00 72 1011.9
20260507081115 38 279 0.0 0.0 0.00 0.00 0.00 72 1011.9